OpenBCM V1.08-5-g2f4a (Linux)

Packet Radio Mailbox

IZ3LSV

[San Dona' di P. JN]

 Login: GUEST





  
I0OJJ  > KEPS     03.09.25 01:30l 314 Lines 14995 Bytes #75 (0) @ AMSAT
BID : ORB25246.1
Read: GUEST
Subj: 2Line Orbital Elements 25246.AMSAT
Path: IZ3LSV<IK6IHL<IK7NXU<HB9ON<HB9ON<PI8ZTM<VK2IO<VK2RZ<LU9DCE<EA2RCF<
      I0OJJ
Sent: 250903/0025z @:I0OJJ.ITA.EU [Rome] obcm1.08-10-g596e
From: I0OJJ @ I0OJJ.ITA.EU (Gustavo)
To:   KEPS @ AMSAT
X-Info: This message was generated automatically


QST de W1STR

AMSAT Orbital Elements for Amateur Satellites in TLE Format
From Orbital Analysis Office
New England Sci-Tech STEM Education Center
Natick MA September 03, 2025
To all radio amateurs


These element sets describe the orbits of various satellites 
in use by the amateur radio community. For details see:
www.amsat.org/keplerian-elements-formats/

A daily update of element sets is available at:
www.amsat.org/tle/daily-bulletin.txt
or without bulletin text:
www.amsat.org/tle/dailytle.txt


AO-07
1 07530U 74089B   25245.56286869 -.00000026  00000-0  13010-3 0  9998
2 07530 101.9974 250.7408 0012048 321.6852 152.5056 12.53691221324472
UO-11
1 14781U 84021B   25245.44745451  .00003924  00000-0  41619-3 0  9990
2 14781  97.7626 210.1845 0009224  62.1613 298.0538 14.89620689214271
AO-27
1 22825U 93061C   25245.11302458  .00000250  00000-0  11269-3 0  9999
2 22825  98.7295 307.0615 0007695 219.3530 140.7094 14.30824043665802
FO-29
1 24278U 96046B   25245.55708599  .00000029  00000-0  62800-4 0  9995
2 24278  98.5614 128.2217 0350718 122.3245 241.2366 13.53252777434269
NOAA-15
1 25338U 98030A   25245.58309764  .00000341  00000-0  15745-3 0  9994
2 25338  98.5329 268.6578 0011412 108.5229 251.7193 14.27010986420278
GO-32
1 25397U 98043D   25245.55165174  .00000229  00000-0  11910-3 0  9990
2 25397  98.9792 226.4777 0001167  16.1260 343.9955 14.24335006410380
ISS
1 25544U 98067A   25245.49033179  .00012737  00000-0  22779-3 0  9994
2 25544  51.6340 283.9232 0003364 306.6950  53.3730 15.50372366527154
NO-44
1 26931U 01043C   25245.45017769  .00000351  00000-0  16243-3 0  9994
2 26931  67.0491 268.4002 0006973 275.7745  84.2561 14.31771297249254
SO-50
1 27607U 02058C   25245.45807990  .00002862  00000-0  36647-3 0  9994
2 27607  64.5541 298.4906 0065185 316.0730  43.5203 14.81840791221805
CO-55
1 27844U 03031E   25245.55783311  .00000739  00000-0  34031-3 0  9996
2 27844  98.6788 252.7451 0008601 305.4181  54.6194 14.24057003150737
CO-57
1 27848U 03031J   25245.54616876  .00000621  00000-0  29303-3 0  9996
2 27848  98.6815 252.6744 0008796 324.7689  35.2907 14.23383033150458
RS-22
1 27939U 03042A   25245.55211966  .00002912  00000-0  46593-3 0  9996
2 27939  98.3356  57.1040 0012605  99.8873 352.0501 14.72547313173207
CO-58
1 28895U 05043F   25244.38134212  .00003506  00000-0  57522-3 0  9993
2 28895  98.2612  29.8445 0015216  45.1932 315.0508 14.71279482 59262
CO-65
1 32785U 08021C   25245.58712688  .00011891  00000-0  83560-3 0  9994
2 32785  97.7939 217.4595 0007380 288.9023  71.1403 15.05247874941861
CO-66
1 32791U 08021J   25245.51706668  .00028654  00000-0  13035-2 0  9999
2 32791  97.7344 227.5949 0002568 188.6737 171.4454 15.20679756943399
RS-30
1 32953U 08025A   25245.62920330  .00000036  00000-0  19131-3 0  9997
2 32953  82.5070 174.2965 0018108 218.0315 141.9488 12.43167964783969
NOAA-19
1 33591U 09005A   25245.50721187  .00000248  00000-0  15590-3 0  9991
2 33591  98.9906 310.6624 0014694 122.1178 238.1422 14.13402487853846
SRMSAT
1 37841U 11058D   25245.50638950  .00000595  00000-0  17929-3 0  9992
2 37841  19.9734   0.6134 0011656 279.7033 159.7813 14.11459743717123
ZACUBE-1
1 39417U 13066B   25245.60962964  .00010282  00000-0  87171-3 0  9990
2 39417  97.7856 202.2418 0044867 126.8618 233.6730 14.97356406637632
Delfi-N3xt
1 39428U 13066N   25245.51323454  .00017023  00000-0  16792-2 0  9997
2 39428  97.8286 162.2446 0085262  80.8931 280.1921 14.89328074631712
GOMX-1
1 39430U 13066Q   25245.56340485  .00004302  00000-0  66887-3 0  9995
2 39430  97.6749  98.9928 0130313 280.5673  78.0876 14.67944746627698
LO-74
1 39440U 13066AA  25245.28138140  .00008150  00000-0  81146-3 0  9998
2 39440  97.8527 189.3043 0059410 260.2618  99.1887 14.90562825634054
AO-73
1 39444U 13066AE  25245.17461858  .00017415  00000-0  12584-2 0  9998
2 39444  97.7893 207.4970 0043001 100.6838 259.9233 15.03372210636295
DTUSAT-2
1 40030U 14033W   25245.38194700  .00016548  00000-0  10388-2 0  9994
2 40030  98.0627 221.3976 0010819 126.5600 233.6625 15.09323777609185
EO-80
1 40032U 14033Y   25245.46417404  .00017814  00000-0  11152-2 0  9991
2 40032  98.0515 221.0205 0010523  78.2527 281.9880 15.09412625609177
LILACSAT-2
1 40908U 15049K   25245.61174900  .00023702  00000-0  57919-3 0  9994
2 40908  97.5043 268.1067 0008195 201.5243 158.5660 15.40793624551318
IO-86
1 40931U 15052B   25151.18580175  .00001241  00000-0  78118-4 0  9996
2 40931   6.0006  24.0987 0012733 338.8432  21.1169 14.78805930523159
Horyu-4
1 41340U 16012D   25245.39755857  .00052254  00000-0  12332-2 0  9990
2 41340  30.9964 280.1150 0006892 218.4887 141.5268 15.40591601525860
Lapan A3
1 41603U 16040E   25245.64746557  .00006881  00000-0  23607-3 0  9991
2 41603  97.1413 246.9597 0009766 335.4045  24.6729 15.30418727510795
CAS-2T
1 41847U 16066G   25245.44967653  .00001543  00000-0  22932-3 0  9999
2 41847  98.4145 319.1598 0344219 281.7513  74.5258 14.43685145463266
CAS-4B
1 42759U 17034B   25245.23899192  .00256511  00000-0  13892-2 0  9998
2 42759  43.0012 172.6994 0022020 175.2035 184.9050 15.78213845455900
CAS-4A
1 42761U 17034D   25245.23929966  .00299488  00000-0  14160-2 0  9993
2 42761  43.0049 168.5315 0022628 181.0035 179.0794 15.81044698455938
TechnoSat
1 42829U 17042E   25245.52079369  .00006979  00000-0  53145-3 0  9990
2 42829  97.4009  50.2193 0017483   2.2586 357.8715 15.02253178443474
AO-91
1 43017U 17073E   25245.60892616  .00014261  00000-0  71302-3 0  9999
2 43017  97.5113 114.2484 0167345 236.3037 122.2141 15.06059318422006
S-Net D
1 43186U 18014G   25245.52960537  .00011031  00000-0  63468-3 0  9997
2 43186  97.5521 147.5666 0007133 298.9171  61.1344 15.12603068415213
S-Net B
1 43187U 18014H   25244.67611581  .00009537  00000-0  54989-3 0  9991
2 43187  97.5521 146.6980 0007901 296.2493  63.7925 15.12563302415088
S-Net A
1 43188U 18014J   25245.46353612  .00010904  00000-0  62733-3 0  9994
2 43188  97.5530 147.6388 0007628 294.2101  65.8332 15.12607201415208
S-Net C
1 43189U 18014K   25245.47257408  .00011215  00000-0  64544-3 0  9990
2 43189  97.5545 147.6764 0009130 284.3601  75.6616 15.12576942413757
Ten-Koh
1 43677U 18084G   25245.47298290  .00005777  00000-0  45798-3 0  9999
2 43677  98.0826  61.0936 0006333 351.5253   8.5861 15.00946025372974
PO-101
1 43678U 18084H   25245.59299422  .00005461  00000-0  45911-3 0  9998
2 43678  98.1104  65.0059 0008938  19.0373 341.1181 14.98699999373116
QO-100
1 43700U 18090A   25245.52899968  .00000146  00000-0  00000-0 0  9997
2 43700   0.0255 244.5433 0001136 290.2379  23.4128  1.00273496 24790
MinXSS-2
1 43758U 18099A   25245.46102337  .00043697  00000-0  15800-2 0  9993
2 43758  97.4947 311.8791 0010913 209.9639 150.0977 15.28252881369921
AO-95
1 43770U 18099N   25245.42573369  .00021850  00000-0  10544-2 0  9997
2 43770  97.4848 302.6160 0008784 276.2718  83.7515 15.18662239369427
SNUSat 2
1 43782U 18099AA  25245.40512048  .00017862  00000-0  93706-3 0  9995
2 43782  97.4527 298.6406 0011018 212.6575 147.3977 15.15752734369347
SnugLite
1 43784U 18099AC  25245.10786638  .00018817  00000-0  90103-3 0  9991
2 43784  97.4337 298.0947 0003060 194.3515 165.7633 15.18991902369461
ITASat 1
1 43786U 18099AE  25245.37636347  .00014830  00000-0  81978-3 0  9994
2 43786  97.4493 297.8643 0012505 272.4509  87.5291 15.13920269369285
EAGLET 1
1 43790U 18099AJ  25245.54089623  .00009005  00000-0  56153-3 0  9992
2 43790  97.4697 297.6856 0010250 255.2267 104.7827 15.09714359368883
ESEO
1 43792U 18099AL  25245.36629346  .00003158  00000-0  23945-3 0  9992
2 43792  97.4396 289.6277 0010710 229.3476 130.6819 15.02896456368559
JO-97
1 43803U 18099AX  25245.15188652  .00026395  00000-0  11341-2 0  9996
2 43803  97.4588 303.5359 0007031 196.8119 163.2886 15.22629251369631
Suomi 100
1 43804U 18099AY  25245.57314381  .00021253  00000-0  98934-3 0  9995
2 43804  97.4656 302.9918 0011608 204.7637 155.3042 15.19888926369606
ISAT
1 43879U 18111D   25245.50769254  .00045905  00000-0  14282-2 0  9991
2 43879  97.5876 161.9264 0005374 246.1946 113.8732 15.33152151366697
UWE-4
1 43880U 18111E   25245.00989474  .00031783  00000-0  11507-2 0  9992
2 43880  97.5818 159.2599 0008668 272.8552  87.1695 15.28305396366511
Sparrow
1 43881U 18111F   25245.22058949  .00051149  00000-0  15196-2 0  9997
2 43881  97.6033 164.8578 0003589 312.2914  47.8023 15.34597377366752
Prox-1
1 44339U 19036A   25245.26180435  .00026127  00000-0  32078-2 0  9999
2 44339  23.9956 224.9032 0006464 316.0065  43.9917 14.81600705330586
Taurus 1
1 44530U 19059C   25245.61764542  .00016893  00000-0  30275-2 0  9999
2 44530  98.6150  29.1417 0009918 130.7417 229.4648 14.66817319316406
Duchifat 3
1 44854U 19089C   25245.51868612  .00120340  00000-0  17264-2 0  9999
2 44854  36.9381 172.2399 0008550 272.5632  87.4149 15.54789648316207
TO-108
1 44881U 19093C   25245.62400918  .00001929  00000-0  22795-3 0  9994
2 44881  97.7869 319.4798 0012710 316.9052  43.1168 14.85761291308706
FloripaSat 1
1 44885U 19093G   25245.59881731  .00014333  00000-0  11754-2 0  9995
2 44885  97.8154 333.4074 0007593 283.0581  76.9794 14.99328756309480
RS-44
1 44909U 19096E   25245.53697682  .00000034  00000-0  84023-4 0  9993
2 44909  82.5255 170.8450 0218500  96.8616 265.7395 12.79743155265556
UPMSat 2
1 46276U 20061E   25244.80129486  .00228500  00000-0  98167-3 0  9990
2 46276  97.2322 322.7819 0002508 218.1066 142.0027 15.84460681278728
SALSAT
1 46495U 20068K   25245.48790155  .00015107  00000-0  62757-3 0  9995
2 46495  97.8682 227.5401 0009772 218.6454 141.4083 15.23883327271458
